User: anonymous   Login
Location: Oshawa
(43.9000°N, 78.8670°W)
Time: 01:25:32
(UTC-04:00)
Language:

Explorer 11/Cluster Stage 4 - Orbit

View from above orbital plane
View from above orbital plane
View from above satellite
View from above satellite

Ground track
Ground track

The orbit data is extracted from the following two-line orbital elements,

1   107U 61013A   17175.53558436 +.00000441 +00000-0 +36730-4 0  9991
2   107 028.7887 208.6446 0549138 222.6177 133.0510 14.08315144812552
Epoch (UTC): 24 June 2017 12:51:14
Eccentricity: 0.0549138
inclination: 28.7887°
perigee height: 467 km
apogee height: 1263 km
right ascension of ascending node: 208.6446°
argument of perigee: 222.6177°
revolutions per day: 14.08315144
mean anomaly at epoch: 133.0510°
orbit number at epoch: 81255

The dashed part of the orbit path shows where the satellite is in the earth's shadow,  

DLR